502  
ASUS41 KBOX 202001  
RWRBOX  
 
REGIONAL WEATHER ROUNDUP  
NATIONAL WEATHER SERVICE BOSTON/NORTON MA  
300 PM EST WED FEB 20 2019  
 
NOTE: "FAIR" INDICATES FEW OR NO CLOUDS BELOW 12,000 FEET WITH NO  
SIGNIFICANT WEATHER AND/OR S TO VISIBILITY
.  
 
MAZALL-202100-  
EASTERN MASSACHUSETTS  
 
CITY SKY/WX TMP DP RH WIND PRES REMARKS
 
BOSTON CLOUDY 30 6 36 S5 30.48F WCI 25  
BEVERLY FAIR 28 5 37 CALM 30.46F  
LAWRENCE FAIR 27 5 39 CALM 30.47F  
BEDFORD CLOUDY 28 7 41 S6 30.46F WCI 22  
BLUE HILL N/A 25 6 44 W6 30.43F WCI 18  
NORWOOD PTSUNNY 30 5 34 CALM 30.48F  
MARSHFIELD NOT AVBL  
PLYMOUTH PTSUNNY 27 7 42 CALM 30.49F  
TAUNTON CLOUDY 29 6 38 CALM 30.49F  
NEW BEDFORD CLOUDY 29 9 43 SW5 30.48F WCI 24  

 
 
MAZALL-202100-  
CAPE COD AND THE ISLANDS  
 
CITY SKY/WX TMP DP RH WIND PRES REMARKS
 
FALMOUTH FAIR 27 5 39 CALM 30.49F  
HYANNIS FAIR 28 10 46 SE3 30.48F  
CHATHAM FAIR 28 15 58 SW5 30.51S WCI 23  
PROVINCETOWN FAIR 29 13 51 SW6 30.50F WCI 23  
NANTUCKET PTSUNNY 28 13 53 SW7 30.51S WCI 21  
MARTHAS VNYRD CLOUDY 29 9 43 SE3 30.50F  

 
 
MAZALL-202100-  
CENTRAL AND WESTERN MASSACHUSETTS  
 
CITY SKY/WX TMP DP RH WIND PRES REMARKS
 
WORCESTER CLOUDY 24 7 48 SW6 30.41S WCI 17  
FITCHBURG PTSUNNY 27 6 41 S7 30.45F WCI 19  
ORANGE CLOUDY 26 7 44 S6 30.44F WCI 19  
SPRINGFIELD CLOUDY 26 10 50 SW6 30.47S WCI 19  
WESTFIELD CLOUDY 26 10 50 VRB3 30.47F  
NORTH ADAMS CLOUDY 27 10 49 CALM 30.41F  
PITTSFIELD CLOUDY 25 8 48 SW7 30.37F WCI 17  

 
 
RIZALL-202100-  
RHODE ISLAND  
 
CITY SKY/WX TMP DP RH WIND PRES REMARKS
 
PROVIDENCE CLOUDY 27 10 49 SE5 30.50F WCI 22  
NEWPORT CLOUDY 27 7 42 VRB3 30.49F  
BLOCK ISLAND CLOUDY 30 15 53 SW6 30.52S WCI 24  
SMITHFIELD CLOUDY 28 8 43 VRB3 30.47F  
WESTERLY CLOUDY 31 13 47 S8 30.52S WCI 23  

 
 
CTZALL-202100-  
CONNECTICUT  
 
CITY SKY/WX TMP DP RH WIND PRES REMARKS
 
BRADLEY INTL FLURRIES 28 12 51 S6 30.48F WCI 22  
HARTFORD CLOUDY 29 10 45 SW6 30.49F WCI 23  
BRIDGEPORT LGT SNOW 27 22 81 S5 30.50F VSB 1 WCI 22  
DANBURY LGT SNOW 25 17 72 SE6 30.46F WCI 18  
GROTON CLOUDY 30 15 53 SW8 30.51F WCI 22  
NEW HAVEN CLOUDY 29 20 69 S6 30.50F HAZE WCI 23  
CHESTER NOT AVBL  
MERIDEN CLOUDY 28 14 55 S8 30.49F WCI 20  
WILLIMANTIC CLOUDY 28 8 43 S6 30.49F WCI 22  
OXFORD FLURRIES 26 16 65 VRB6 30.44F WCI 19  

 
 
MEZ002-015-021-024-NHZ003-005-008-011-012-014-VTZ005-008-202100-  
NORTHERN NEW ENGLAND  
 
CITY SKY/WX TMP DP RH WIND PRES REMARKS
 
PORTLAND ME CLOUDY 25 8 48 S10 30.45F WCI 15  
BANGOR ME PTSUNNY 23 -1 35 SW12 30.44S WCI 12  
CONCORD NH FAIR 27 5 39 CALM 30.43F  
MANCHESTER NH CLOUDY 28 4 35 S5 30.43F WCI 23  
NASHUA NH FAIR 30 9 41 CALM 30.46F  
PORTSMOUTH NH NOT AVBL  
JAFFREY NH CLOUDY 25 5 42 S5 30.39F WCI 19  
KEENE NH CLOUDY 27 10 49 CALM 30.44F  
BURLINGTON VT CLOUDY 25 10 53 S10 30.40F WCI 15  
MT. WASHINGTON NOT AVBL  

 
 
NYZ052-076-202100-  
EASTERN NEW YORK  
 
CITY SKY/WX TMP DP RH WIND PRES REMARKS
 
ALBANY CLOUDY 27 10 49 S8 30.43F WCI 19  
NEW YORK CITY SNOW 27 23 85 E12 30.46F VSB 1/2 WCI 17  

 
 
ANZALL-202100-  
MARINE OBSERVATIONS  
 
STATION/POSITION TIME TEMP WIND PRES VSBY WAVE
 
AIR SEA DIR/SP/G HT/PER  
(UTC) (F) (DEG/KT/KT) (MB) (MI) (FT/S)  
BOSTON BUOY 1850 27 39 250/ 8/ 10 1032.8 1/ 6  
BUZZARDS BAY 1900 27 CALM / 1 1033.8F  
NANTUCKET SOUND 1940 26 34 210/ 2/ 6 1033.1F  
MASS BAY-STELLWA 1904 27 37 270/ 8/ 12 1032.0F 1 7/8 1/11  
ISLE OF SHOALS 1900 25 220/ 4/ 5 1032.4F  
S OF BLOCK IS 1930 42 N/A 1/ 8  

 
   
.....................KEY......................
 
 
SKY/WX - SKY CONDITION/PRESENT WEATHER  
TMP - TEMPERATURE IN FAHRENHEIT  
DWPT - DEWPOINT IN FAHRENHEIT  
RH - RELATIVE HUMIDITY IN PERCENT  
WIND - DIRECTION AND SPEED IN MPH  
PRES - MEAN SEA LEVEL PRESSURE IN INCHES OF HG  
WCI - WIND CHILL INDEX  
VSB - VISIBILITY IN MILES  
HX - HEAT INDEX  
TC - TEMPERATURE IN CELSIUS  
VRB - VARIABLE WIND DIRECTION  
N/A - NOT AVAILABLE  
 
 
CLICK HERE TO GO TO PREVIOUS BULLETINS.

The Nexlab MA Page
The Nexlab RI Page
The Nexlab NH Page
The Nexlab CT Page Main Text Page